Location: Newark
(45.8667°N, 9.7333°E)
Time: 21:02:20
(UTC+00:00)

Vanguard 3 - Pass Details

Date: 29 January 2020
Orbit: 508 x 3263 km, 33.3° (Epoch: 25 February)

Event Time Altitude Azimuth Distance (km) Brightness Sun altitude
Rises 19:44:29 0° 271° (W) 7,223 13.0 -35.3°
Reaches altitude 10° 19:49:43 10° 266° (W) 6,192 12.3 -36.2°
Maximum altitude 20:07:12 44° 203° (SSW) 3,447 10.2 -39.1°
Enters shadow 20:11:03 39° 174° (S) 3,398 10.0 -39.8°
Drops below altitude 10° 20:19:32 10° 137° (SE) 4,451 - -41.2°
Sets 20:22:38 0° 130° (SE) 5,115 - -41.7°
